Weather History for Cincinnati, OH

Change the Weather History Date:

Wednesday, December 19, 2012

  Actual Average Record
Temperature  
Mean Temperature 42 °F -  
Max Temperature 48 °F 42 °F 66 °F (2008)
Min Temperature 37 °F 26 °F -1 °F (1963)
Degree Days  
Heating Degree Days 22    
Moisture  
Dew Point 35 °F    
Average Humidity 77    
Maximum Humidity 87    
Minimum Humidity 64    
Precipitation  
Precipitation 0.00 in - - ()
Sea Level Pressure  
Sea Level Pressure 30.02 in    
Wind  
Wind Speed 5 mph (West)    
Max Wind Speed 12 mph    
Max Gust Speed 21 mph    
Visibility 9 miles    
Events      
Averages and records for this station are not official NWS values.
T = Trace of Precipitation, MM = Missing Value Source: NWS Daily Summary

Daily Weather History Graph

Daily Weather History Graph

Search for Another Location

Airport:

Trip Planner

Search our weather history database for the weather conditions in past years. The results will help you decide how hot, cold, wet, or windy it might be!

Date:

Astronomy

Dec. 19, 2012 Rise Set
Actual Time 7:52 AM EST 5:17 PM EST
Civil Twilight 7:22 AM EST 5:47 PM EST
Nautical Twilight 6:48 AM EST 6:21 PM EST
Astronomical Twilight 6:16 AM EST 6:54 PM EST
Moon 12:04 PM EST (12/19) No Moon Set
Length of Visible Light 10h 25m
Length of Day
9h 25m
Waxing Crescent, 45% of the Moon is Illuminated
Dec 19
Waxing Crescent
Dec 20
First Quarter
Dec 28
Full
Jan 4
Last Quarter
Jan 11
New

Hourly Weather History & Observations

Time (EST) Temp. Windchill Dew Point Humidity Pressure Visibility Wind Dir Wind Speed Gust Speed Precip Events Conditions
12:53 AM 37.0 °F 31.6 °F 33.1 °F 86% 29.82 in 10.0 mi SSW 6.9 mph - N/A   Clear
1:53 AM 41.0 °F 34.7 °F 35.1 °F 79% 29.84 in 10.0 mi SSW 10.4 mph - N/A   Clear
2:53 AM 43.0 °F 39.5 °F 37.0 °F 80% 29.87 in 10.0 mi SW 5.8 mph - N/A   Clear
3:34 AM 44.6 °F 39.2 °F 37.4 °F 76% 29.89 in 10.0 mi West 10.4 mph - N/A   Mostly Cloudy
3:53 AM 44.1 °F 38.1 °F 36.0 °F 73% 29.91 in 10.0 mi WNW 11.5 mph 20.7 mph N/A   Scattered Clouds
4:53 AM 39.9 °F 35.8 °F 33.1 °F 77% 29.96 in 10.0 mi Variable 5.8 mph - N/A   Scattered Clouds
5:43 AM 39.2 °F 34.2 °F 33.8 °F 81% 29.98 in 9.0 mi WNW 6.9 mph - N/A   Mostly Cloudy
5:53 AM 39.0 °F 34.0 °F 33.1 °F 79% 29.99 in 8.0 mi West 6.9 mph - N/A   Overcast
6:53 AM 39.0 °F 35.7 °F 33.1 °F 79% 30.02 in 8.0 mi WNW 4.6 mph - N/A   Overcast
7:53 AM 39.0 °F 36.8 °F 33.1 °F 79% 30.04 in 8.0 mi NW 3.5 mph - N/A   Overcast
8:35 AM 37.4 °F 34.9 °F 33.8 °F 87% 30.04 in 7.0 mi WSW 3.5 mph - N/A   Scattered Clouds
8:50 AM 39.2 °F 37.0 °F 33.8 °F 81% 30.06 in 7.0 mi SW 3.5 mph - N/A   Mostly Cloudy
8:53 AM 39.0 °F - 35.1 °F 86% 30.07 in 7.0 mi Calm Calm - N/A   Mostly Cloudy
9:53 AM 41.0 °F 39.0 °F 34.0 °F 76% 30.09 in 7.0 mi West 3.5 mph - N/A   Partly Cloudy
10:53 AM 42.1 °F - 35.1 °F 76% 30.09 in 7.0 mi Calm Calm - N/A   Partly Cloudy
11:53 AM 43.0 °F - 36.0 °F 76% 30.09 in 8.0 mi Calm Calm - N/A   Clear
12:53 PM 45.0 °F - 35.1 °F 68% 30.08 in 9.0 mi Calm Calm - N/A   Clear
1:53 PM 46.0 °F 44.8 °F 36.0 °F 68% 30.09 in 9.0 mi Variable 3.5 mph - N/A   Clear
2:53 PM 46.9 °F - 36.0 °F 66% 30.06 in 10.0 mi Calm Calm - N/A   Clear
3:53 PM 48.9 °F - 37.0 °F 64% 30.06 in 10.0 mi Calm Calm - N/A   Clear
4:53 PM 45.0 °F - 36.0 °F 71% 30.07 in 10.0 mi Calm Calm - N/A   Clear
5:53 PM 41.0 °F - 36.0 °F 82% 30.09 in 10.0 mi Calm Calm - N/A   Clear
6:53 PM 42.1 °F 40.2 °F 37.0 °F 82% 30.09 in 10.0 mi ENE 3.5 mph - N/A   Clear
7:53 PM 42.1 °F 39.2 °F 37.0 °F 82% 30.08 in 9.0 mi NE 4.6 mph - N/A   Overcast
8:53 PM 42.1 °F 38.4 °F 37.0 °F 82% 30.07 in 9.0 mi NNE 5.8 mph - N/A   Overcast
9:53 PM 44.1 °F 41.5 °F 37.0 °F 76% 30.04 in 10.0 mi East 4.6 mph - N/A   Mostly Cloudy
10:53 PM 44.1 °F - 37.9 °F 79% 30.03 in 10.0 mi Calm Calm - N/A   Overcast
11:53 PM 45.0 °F 42.6 °F 37.0 °F 74% 29.99 in 10.0 mi ESE 4.6 mph - N/A   Overcast